Tracking 19245 objects as of 18-Aug-2018
HD Live streaming from Space Station
objects crossing your sky now

FENGYUN 1C DEB

Track FENGYUN 1C DEB now!
10-day predictions


NORAD ID: 30471
Int'l Code: 1999-025AGJ
Perigee: 823.8 km
Apogee: 963.7 km
Inclination: 99.2 °
Period: 102.7 minutes
Semi major axis: 7264 km
RCS: 0.033 m2 (small)
Launch date: May 10, 1999
Source: People's Republic of China (PRC)
Launch site: Taiyaun Space Center, China (TSC)

Note: This is SATELLITE DEBRIS
aabbcc
Your satellite tracking list
Your tracking list is empty




NASA's NSSDC Master Catalog

Two Line Element Set (TLE):
1 30471U 99025AGJ 18229.78792435  .00000017  00000-0  39155-4 0  9992
2 30471  99.2175 262.6344 0096269 119.4459 294.6436 14.02085822589088
Source of the keplerian elements: AFSPC